Time,TemperatureF,DewpointF,PressureIn,WindDirection,WindDirectionDegrees,WindSpeedMPH,WindSpeedGustMPH,Humidity,HourlyPrecipIn,Conditions,Clouds,dailyrainin,SoftwareType,DateUTC
2013-02-06 00:02:00,30.0,29.0,29.96,North,0,0.0,3.0,95,0.00,,,0.00,,2013-02-06 05:02:00,
2013-02-06 00:12:00,30.0,29.0,29.96,North,0,0.0,3.0,95,0.00,,,0.00,,2013-02-06 05:12:00,
2013-02-06 00:22:00,30.0,29.0,29.96,North,0,0.0,1.0,96,0.00,,,0.00,,2013-02-06 05:22:00,
2013-02-06 00:32:00,30.0,29.0,29.96,North,0,0.0,3.0,95,0.00,,,0.00,,2013-02-06 05:32:00,
2013-02-06 00:41:00,30.0,29.0,29.96,North,0,0.0,3.0,95,0.00,,,0.00,,2013-02-06 05:41:00,
2013-02-06 00:53:00,29.0,28.0,29.96,North,0,0.0,3.0,96,0.00,,,0.00,,2013-02-06 05:53:00,
2013-02-06 01:01:00,29.0,28.0,29.96,North,0,0.0,3.0,96,0.00,,,0.00,,2013-02-06 06:01:00,
2013-02-06 01:11:00,29.0,28.0,29.96,North,0,0.0,3.0,96,0.00,,,0.00,,2013-02-06 06:11:00,
2013-02-06 01:22:00,29.0,28.0,29.96,North,0,0.0,1.0,96,0.00,,,0.00,,2013-02-06 06:22:00,
2013-02-06 01:32:00,29.0,28.0,29.96,North,0,0.0,1.0,95,0.00,,,0.00,,2013-02-06 06:32:00,
2013-02-06 01:42:00,29.0,28.0,29.96,North,0,0.0,1.0,95,0.00,,,0.00,,2013-02-06 06:42:00,
2013-02-06 01:52:00,28.0,27.0,29.96,North,0,0.0,0.0,95,0.00,,,0.00,,2013-02-06 06:52:00,
2013-02-06 02:01:00,28.0,27.0,29.96,North,0,0.0,0.0,95,0.00,,,0.00,,2013-02-06 07:01:00,
2013-02-06 02:11:00,28.0,27.0,29.96,North,0,0.0,0.0,95,0.00,,,0.00,,2013-02-06 07:11:00,
2013-02-06 02:22:00,27.0,26.0,29.96,North,0,0.0,0.0,95,0.00,,,0.00,,2013-02-06 07:22:00,
2013-02-06 02:32:00,27.0,26.0,29.97,North,0,0.0,0.0,95,0.00,,,0.00,,2013-02-06 07:32:00,
2013-02-06 02:42:00,27.0,26.0,29.97,North,0,0.0,0.0,95,0.00,,,0.00,,2013-02-06 07:42:00,
2013-02-06 02:52:00,26.0,25.0,29.97,North,0,0.0,1.0,95,0.00,,,0.00,,2013-02-06 07:52:00,
2013-02-06 03:01:00,26.0,25.0,29.97,North,0,0.0,1.0,95,0.00,,,0.00,,2013-02-06 08:01:00,
2013-02-06 03:11:00,26.0,25.0,29.97,North,0,0.0,1.0,95,0.00,,,0.00,,2013-02-06 08:11:00,
2013-02-06 03:21:00,26.0,25.0,29.97,North,0,0.0,0.0,96,0.00,,,0.00,,2013-02-06 08:21:00,
2013-02-06 03:31:00,25.0,24.0,29.97,North,0,0.0,0.0,95,0.00,,,0.00,,2013-02-06 08:31:00,
2013-02-06 03:42:00,25.0,24.0,29.97,North,0,0.0,0.0,95,0.00,,,0.00,,2013-02-06 08:42:00,
2013-02-06 03:53:00,23.0,22.0,29.99,North,0,0.0,2.0,95,0.00,,,0.00,,2013-02-06 08:53:00,
2013-02-06 04:01:00,23.0,22.0,29.99,North,0,0.0,0.0,95,0.00,,,0.00,,2013-02-06 09:01:00,
2013-02-06 04:11:00,23.0,22.0,29.99,North,0,0.0,0.0,95,0.00,,,0.00,,2013-02-06 09:11:00,
2013-02-06 04:21:00,24.0,23.0,30.01,NW,318,1.0,3.0,96,0.00,,,0.00,,2013-02-06 09:21:00,
2013-02-06 04:32:00,25.0,24.0,30.01,North,0,0.0,3.0,96,0.00,,,0.00,,2013-02-06 09:32:00,
2013-02-06 04:42:00,25.0,24.0,30.01,North,0,0.0,3.0,96,0.00,,,0.00,,2013-02-06 09:42:00,
2013-02-06 04:52:00,27.0,26.0,30.01,North,0,0.0,3.0,96,0.00,,,0.00,,2013-02-06 09:52:00,
2013-02-06 05:01:00,27.0,26.0,30.02,North,0,0.0,0.0,96,0.00,,,0.00,,2013-02-06 10:01:00,
2013-02-06 05:11:00,27.0,26.0,30.02,North,0,0.0,0.0,96,0.00,,,0.00,,2013-02-06 10:11:00,
2013-02-06 05:21:00,28.0,27.0,30.02,North,0,0.0,3.0,96,0.00,,,0.00,,2013-02-06 10:21:00,
2013-02-06 05:31:00,28.0,27.0,30.03,North,0,0.0,3.0,96,0.00,,,0.00,,2013-02-06 10:31:00,
2013-02-06 05:42:00,28.0,27.0,30.03,North,0,0.0,3.0,96,0.00,,,0.00,,2013-02-06 10:42:00,
2013-02-06 05:52:00,28.0,27.0,30.05,North,0,0.0,5.0,96,0.00,,,0.00,,2013-02-06 10:52:00,
2013-02-06 06:01:00,28.0,27.0,30.06,North,0,0.0,2.0,96,0.00,,,0.00,,2013-02-06 11:01:00,
2013-02-06 06:11:00,28.0,27.0,30.06,North,0,0.0,2.0,96,0.00,,,0.00,,2013-02-06 11:11:00,
2013-02-06 06:22:00,28.0,27.0,30.06,North,0,0.0,3.0,96,0.00,,,0.00,,2013-02-06 11:22:00,
2013-02-06 06:32:00,28.0,27.0,30.07,North,0,0.0,0.0,96,0.00,,,0.00,,2013-02-06 11:32:00,
2013-02-06 06:42:00,28.0,27.0,30.07,North,0,0.0,0.0,96,0.00,,,0.00,,2013-02-06 11:42:00,
2013-02-06 06:53:00,28.0,27.0,30.08,North,0,0.0,0.0,96,0.00,,,0.00,,2013-02-06 11:53:00,
2013-02-06 07:02:00,28.0,27.0,30.08,North,0,0.0,0.0,96,0.00,,,0.00,,2013-02-06 12:02:00,
2013-02-06 07:12:00,28.0,27.0,30.08,North,0,0.0,0.0,96,0.00,,,0.00,,2013-02-06 12:12:00,
2013-02-06 07:22:00,28.0,27.0,30.09,NW,313,1.0,2.0,96,0.00,,,0.00,,2013-02-06 12:22:00,
2013-02-06 07:32:00,27.0,26.0,30.11,North,0,0.0,1.0,96,0.00,,,0.00,,2013-02-06 12:32:00,
2013-02-06 07:42:00,27.0,26.0,30.11,North,0,0.0,1.0,96,0.00,,,0.00,,2013-02-06 12:42:00,
2013-02-06 07:52:00,27.0,26.0,30.12,North,0,0.0,2.0,96,0.00,,,0.00,,2013-02-06 12:52:00,
2013-02-06 08:01:00,28.0,27.0,30.12,North,0,0.0,1.0,96,0.00,,,0.00,,2013-02-06 13:01:00,
2013-02-06 08:12:00,28.0,27.0,30.12,North,0,0.0,1.0,96,0.00,,,0.00,,2013-02-06 13:12:00,
2013-02-06 08:22:00,28.0,27.0,30.13,North,0,0.0,0.0,96,0.00,,,0.00,,2013-02-06 13:22:00,
2013-02-06 08:32:00,28.0,27.0,30.13,North,0,0.0,0.0,96,0.00,,,0.00,,2013-02-06 13:32:00,
2013-02-06 08:42:00,28.0,27.0,30.13,North,0,0.0,0.0,96,0.00,,,0.00,,2013-02-06 13:42:00,
2013-02-06 08:52:00,29.0,28.0,30.14,North,0,0.0,2.0,97,0.00,,,0.00,,2013-02-06 13:52:00,
2013-02-06 09:02:00,29.0,28.0,30.16,North,0,0.0,2.0,97,0.00,,,0.00,,2013-02-06 14:02:00,
2013-02-06 09:11:00,29.0,28.0,30.16,NW,313,1.0,4.0,97,0.00,,,0.00,,2013-02-06 14:11:00,
2013-02-06 09:22:00,29.0,28.0,30.16,NW,313,1.0,4.0,97,0.00,,,0.00,,2013-02-06 14:22:00,
2013-02-06 09:32:00,30.0,29.0,30.16,North,0,0.0,2.0,97,0.00,,,0.00,,2013-02-06 14:32:00,
2013-02-06 09:42:00,30.0,29.0,30.16,NW,313,1.0,4.0,97,0.00,,,0.00,,2013-02-06 14:42:00,
2013-02-06 09:52:00,30.0,29.0,30.16,NW,313,1.0,4.0,97,0.00,,,0.00,,2013-02-06 14:52:00,
2013-02-06 10:02:00,30.0,29.0,30.17,NW,311,3.0,5.0,97,0.00,,,0.00,,2013-02-06 15:02:00,
2013-02-06 10:11:00,31.0,30.0,30.18,NW,311,3.0,11.0,97,0.00,,,0.00,,2013-02-06 15:11:00,
2013-02-06 10:21:00,31.0,30.0,30.18,NW,311,3.0,11.0,97,0.00,,,0.00,,2013-02-06 15:21:00,
2013-02-06 10:31:00,31.0,30.0,30.19,NW,311,3.0,11.0,97,0.00,,,0.00,,2013-02-06 15:31:00,
2013-02-06 10:42:00,32.0,31.0,30.19,NW,313,2.0,7.0,95,0.00,,,0.00,,2013-02-06 15:42:00,
2013-02-06 10:52:00,32.0,31.0,30.19,NW,313,2.0,7.0,95,0.00,,,0.00,,2013-02-06 15:52:00,
2013-02-06 11:01:00,32.0,30.0,30.19,North,0,0.0,4.0,94,0.01,,,0.01,,2013-02-06 16:01:00,
2013-02-06 11:11:00,32.0,30.0,30.19,North,0,0.0,4.0,94,0.01,,,0.01,,2013-02-06 16:11:00,
2013-02-06 11:21:00,33.0,30.0,30.20,NW,313,7.0,11.0,88,0.01,,,0.01,,2013-02-06 16:21:00,
2013-02-06 11:32:00,33.0,29.0,30.20,NW,310,7.0,12.0,85,0.02,,,0.02,,2013-02-06 16:32:00,
2013-02-06 11:42:00,33.0,29.0,30.20,NW,310,7.0,12.0,85,0.02,,,0.02,,2013-02-06 16:42:00,
2013-02-06 11:52:00,34.0,29.0,30.20,NW,309,4.0,15.0,82,0.02,,,0.02,,2013-02-06 16:52:00,
2013-02-06 12:02:00,34.0,28.0,30.21,NW,308,8.0,13.0,79,0.01,,,0.02,,2013-02-06 17:02:00,
2013-02-06 12:11:00,35.0,29.0,30.20,NW,311,7.0,13.0,77,0.01,,,0.02,,2013-02-06 17:11:00,
2013-02-06 12:22:00,35.0,29.0,30.20,NW,311,7.0,13.0,77,0.01,,,0.02,,2013-02-06 17:22:00,
2013-02-06 12:32:00,35.0,28.0,30.20,NW,309,6.0,20.0,75,0.00,,,0.02,,2013-02-06 17:32:00,
2013-02-06 12:42:00,35.0,27.0,30.19,NW,312,2.0,9.0,73,0.00,,,0.02,,2013-02-06 17:42:00,
2013-02-06 12:52:00,35.0,27.0,30.19,NW,312,2.0,9.0,73,0.00,,,0.02,,2013-02-06 17:52:00,
2013-02-06 13:01:00,36.0,28.0,30.19,NW,309,6.0,17.0,71,0.01,,,0.03,,2013-02-06 18:01:00,
2013-02-06 13:11:00,35.0,27.0,30.20,NW,309,8.0,18.0,71,0.01,,,0.03,,2013-02-06 18:11:00,
2013-02-06 13:23:00,35.0,27.0,30.20,NW,309,8.0,18.0,71,0.01,,,0.03,,2013-02-06 18:23:00,
2013-02-06 13:32:00,35.0,27.0,30.20,NW,312,4.0,11.0,72,0.01,,,0.03,,2013-02-06 18:32:00,
2013-02-06 13:42:00,35.0,27.0,30.20,NW,312,4.0,11.0,72,0.01,,,0.03,,2013-02-06 18:42:00,
2013-02-06 13:52:00,36.0,27.0,30.20,NW,314,7.0,15.0,69,0.01,,,0.03,,2013-02-06 18:52:00,
2013-02-06 14:01:00,36.0,27.0,30.20,NW,317,6.0,12.0,69,0.00,,,0.03,,2013-02-06 19:01:00,
2013-02-06 14:11:00,36.0,27.0,30.20,NW,317,6.0,12.0,69,0.00,,,0.03,,2013-02-06 19:11:00,
2013-02-06 14:21:00,36.0,26.0,30.20,NW,310,9.0,19.0,67,0.00,,,0.03,,2013-02-06 19:21:00,
2013-02-06 14:32:00,36.0,27.0,30.21,NW,309,12.0,17.0,69,0.00,,,0.03,,2013-02-06 19:32:00,
2013-02-06 14:42:00,36.0,27.0,30.21,NW,309,12.0,17.0,69,0.00,,,0.03,,2013-02-06 19:42:00,
2013-02-06 14:52:00,36.0,26.0,30.21,NW,315,11.0,17.0,66,0.00,,,0.03,,2013-02-06 19:52:00,
2013-02-06 15:01:00,36.0,26.0,30.21,NW,314,8.0,21.0,67,0.00,,,0.03,,2013-02-06 20:01:00,
2013-02-06 15:11:00,37.0,27.0,30.21,NW,307,7.0,16.0,67,0.00,,,0.03,,2013-02-06 20:11:00,
2013-02-06 15:21:00,37.0,27.0,30.21,NW,307,7.0,16.0,67,0.00,,,0.03,,2013-02-06 20:21:00,
2013-02-06 15:32:00,37.0,27.0,30.22,NW,310,6.0,13.0,67,0.00,,,0.03,,2013-02-06 20:32:00,
2013-02-06 15:42:00,37.0,27.0,30.22,NW,310,6.0,13.0,67,0.00,,,0.03,,2013-02-06 20:42:00,
2013-02-06 15:52:00,37.0,27.0,30.22,NW,313,10.0,19.0,66,0.00,,,0.03,,2013-02-06 20:52:00,
2013-02-06 16:02:00,37.0,27.0,30.23,NW,311,8.0,17.0,66,0.00,,,0.03,,2013-02-06 21:02:00,
2013-02-06 16:11:00,37.0,27.0,30.23,NW,311,8.0,17.0,66,0.00,,,0.03,,2013-02-06 21:11:00,
2013-02-06 16:21:00,37.0,27.0,30.24,NW,312,7.0,14.0,66,0.00,,,0.03,,2013-02-06 21:21:00,
2013-02-06 16:32:00,37.0,26.0,30.23,NW,314,12.0,16.0,65,0.00,,,0.03,,2013-02-06 21:32:00,
2013-02-06 16:42:00,37.0,26.0,30.23,NW,314,12.0,16.0,65,0.00,,,0.03,,2013-02-06 21:42:00,
2013-02-06 16:52:00,36.0,25.0,30.24,NW,311,6.0,13.0,65,0.00,,,0.03,,2013-02-06 21:52:00,
2013-02-06 17:01:00,36.0,25.0,30.25,NW,315,7.0,13.0,65,0.00,,,0.03,,2013-02-06 22:01:00,
2013-02-06 17:11:00,36.0,25.0,30.25,NW,315,7.0,13.0,65,0.00,,,0.03,,2013-02-06 22:11:00,
2013-02-06 17:21:00,36.0,26.0,30.25,NW,312,6.0,10.0,66,0.00,,,0.03,,2013-02-06 22:21:00,
2013-02-06 17:31:00,36.0,26.0,30.26,NW,315,5.0,10.0,66,0.00,,,0.03,,2013-02-06 22:31:00,
2013-02-06 17:42:00,36.0,26.0,30.26,NW,315,5.0,10.0,66,0.00,,,0.03,,2013-02-06 22:42:00,
2013-02-06 17:52:00,35.0,25.0,30.27,NW,316,4.0,12.0,67,0.00,,,0.03,,2013-02-06 22:52:00,
2013-02-06 18:01:00,35.0,25.0,30.27,NW,312,4.0,7.0,67,0.00,,,0.03,,2013-02-06 23:01:00,
2013-02-06 18:11:00,35.0,25.0,30.27,NW,312,4.0,7.0,67,0.00,,,0.03,,2013-02-06 23:11:00,
2013-02-06 18:21:00,34.0,25.0,30.28,North,0,0.0,5.0,69,0.00,,,0.03,,2013-02-06 23:21:00,
2013-02-06 18:32:00,34.0,25.0,30.29,North,0,0.0,3.0,69,0.00,,,0.03,,2013-02-06 23:32:00,
2013-02-06 18:42:00,34.0,25.0,30.29,North,0,0.0,3.0,69,0.00,,,0.03,,2013-02-06 23:42:00,
2013-02-06 18:52:00,34.0,25.0,30.30,North,0,0.0,6.0,70,0.00,,,0.03,,2013-02-06 23:52:00,
2013-02-06 19:01:00,33.0,24.0,30.31,NW,311,1.0,4.0,70,0.00,,,0.03,,2013-02-07 00:01:00,
2013-02-06 19:11:00,33.0,24.0,30.31,NW,311,1.0,4.0,70,0.00,,,0.03,,2013-02-07 00:11:00,
2013-02-06 19:21:00,33.0,24.0,30.31,North,0,0.0,5.0,70,0.00,,,0.03,,2013-02-07 00:21:00,
2013-02-06 19:32:00,33.0,25.0,30.32,North,0,0.0,2.0,71,0.00,,,0.03,,2013-02-07 00:32:00,
2013-02-06 19:42:00,33.0,25.0,30.32,North,0,0.0,2.0,71,0.00,,,0.03,,2013-02-07 00:42:00,
2013-02-06 19:52:00,32.0,24.0,30.31,NW,316,4.0,10.0,71,0.00,,,0.03,,2013-02-07 00:52:00,
2013-02-06 20:01:00,32.0,25.0,30.30,NW,322,4.0,12.0,76,0.00,,,0.03,,2013-02-07 01:01:00,
2013-02-06 20:11:00,32.0,25.0,30.30,NW,322,4.0,12.0,76,0.00,,,0.03,,2013-02-07 01:11:00,
2013-02-06 20:21:00,32.0,24.0,30.31,North,0,0.0,5.0,71,0.00,,,0.03,,2013-02-07 01:21:00,
2013-02-06 20:32:00,31.0,23.0,30.32,NW,323,1.0,3.0,71,0.00,,,0.03,,2013-02-07 01:32:00,
2013-02-06 20:42:00,31.0,23.0,30.32,NW,323,1.0,3.0,71,0.00,,,0.03,,2013-02-07 01:42:00,
2013-02-06 20:52:00,31.0,23.0,30.33,North,0,0.0,4.0,71,0.00,,,0.03,,2013-02-07 01:52:00,
2013-02-06 21:01:00,31.0,23.0,30.33,North,0,0.0,3.0,71,0.00,,,0.03,,2013-02-07 02:01:00,
2013-02-06 21:11:00,31.0,23.0,30.33,North,0,0.0,3.0,71,0.00,,,0.03,,2013-02-07 02:11:00,
2013-02-06 21:21:00,31.0,22.0,30.34,North,0,0.0,4.0,70,0.00,,,0.03,,2013-02-07 02:21:00,
2013-02-06 21:32:00,31.0,22.0,30.35,North,0,0.0,2.0,70,0.00,,,0.03,,2013-02-07 02:32:00,
2013-02-06 21:42:00,31.0,22.0,30.35,North,0,0.0,2.0,70,0.00,,,0.03,,2013-02-07 02:42:00,
2013-02-06 21:52:00,31.0,22.0,30.35,North,0,0.0,2.0,70,0.00,,,0.03,,2013-02-07 02:52:00,
2013-02-06 22:02:00,30.0,21.0,30.36,North,0,0.0,0.0,69,0.00,,,0.03,,2013-02-07 03:02:00,
2013-02-06 22:11:00,30.0,21.0,30.36,North,0,0.0,1.0,69,0.00,,,0.03,,2013-02-07 03:11:00,
2013-02-06 22:21:00,30.0,21.0,30.36,North,0,0.0,1.0,69,0.00,,,0.03,,2013-02-07 03:21:00,
2013-02-06 22:31:00,30.0,21.0,30.37,NW,323,1.0,3.0,70,0.00,,,0.03,,2013-02-07 03:31:00,
2013-02-06 22:42:00,30.0,21.0,30.37,NW,323,1.0,3.0,70,0.00,,,0.03,,2013-02-07 03:42:00,
2013-02-06 22:52:00,29.0,21.0,30.37,North,0,0.0,1.0,71,0.00,,,0.03,,2013-02-07 03:52:00,
2013-02-06 23:01:00,29.0,21.0,30.38,North,0,0.0,1.0,71,0.00,,,0.03,,2013-02-07 04:01:00,
2013-02-06 23:11:00,29.0,21.0,30.38,North,0,0.0,1.0,71,0.00,,,0.03,,2013-02-07 04:11:00,
2013-02-06 23:22:00,29.0,21.0,30.38,North,0,0.0,0.0,71,0.00,,,0.03,,2013-02-07 04:22:00,
2013-02-06 23:32:00,29.0,21.0,30.38,North,0,0.0,0.0,72,0.00,,,0.03,,2013-02-07 04:32:00,
2013-02-06 23:42:00,29.0,21.0,30.38,North,0,0.0,0.0,72,0.00,,,0.03,,2013-02-07 04:42:00,
2013-02-06 23:53:00,27.0,20.0,30.38,North,0,0.0,0.0,75,0.00,,,0.03,,2013-02-07 04:53:00,